| time (UTC) | temp F | wind direction | speed MPH | gust MPH | rain 1hr in | rain 24hr in | rain mn in | humidity % | barometer mb |
| 20260901003647 | 84 | 156 | 0.0 | 4.0 | 0.00 | 0.00 | 0.00 | 83 | 1014.1 |
| 20260901003145 | 85 | 173 | 1.0 | 4.0 | 0.00 | 0.00 | 0.00 | 83 | 1014.1 |
| 20260901002643 | 85 | 253 | 1.0 | 4.0 | 0.00 | 0.00 | 0.00 | 83 | 1014.2 |
| 20260901002143 | 85 | 289 | 1.0 | 4.0 | 0.00 | 0.00 | 0.00 | 82 | 1014.1 |
| 20260901001915 | 85 | 140 | 1.0 | 5.0 | 0.00 | 0.00 | 0.00 | 81 | 1014.2 |
| 20260901001145 | 85 | 265 | 1.0 | 5.0 | 0.00 | 0.00 | 0.00 | 81 | 1014.2 |
| 20260901000644 | 85 | 198 | 1.0 | 4.0 | 0.00 | 0.00 | 0.00 | 80 | 1014.3 |
| 20260901000143 | 86 | 244 | 1.0 | 5.0 | 0.00 | 0.00 | 0.00 | 80 | 1014.2 |
| 20260831235916 | 86 | 237 | 1.0 | 9.0 | 0.00 | 0.00 | 0.00 | 79 | 1014.4 |
| 20260831235144 | 86 | 279 | 1.0 | 9.0 | 0.00 | 0.00 | 0.00 | 80 | 1014.4 |
| 20260831234645 | 86 | 294 | 3.0 | 8.0 | 0.00 | 0.00 | 0.00 | 79 | 1014.7 |
| 20260831234405 | 87 | 317 | 4.0 | 10.0 | 0.00 | 0.00 | 0.00 | 79 | 1014.7 |
| 20260831233639 | 87 | 301 | 3.0 | 10.0 | 0.00 | 0.00 | 0.00 | 77 | 1014.7 |
| 20260831233138 | 87 | 279 | 1.0 | 8.0 | 0.00 | 0.00 | 0.00 | 77 | 1014.7 |
| 20260831232637 | 87 | 254 | 3.0 | 5.0 | 0.00 | 0.00 | 0.00 | 76 | 1014.6 |
| 20260831232136 | 87 | 320 | 4.0 | 10.0 | 0.00 | 0.00 | 0.00 | 76 | 1014.6 |
| 20260831231635 | 87 | 286 | 4.0 | 10.0 | 0.00 | 0.00 | 0.00 | 75 | 1014.7 |
| 20260831231134 | 88 | 293 | 4.0 | 10.0 | 0.00 | 0.00 | 0.00 | 75 | 1014.7 |
| 20260831230631 | 88 | 262 | 4.0 | 9.0 | 0.00 | 0.00 | 0.00 | 74 | 1014.7 |
| 20260831230131 | 88 | 264 | 4.0 | 11.0 | 0.00 | 0.00 | 0.00 | 75 | 1014.8 |
| 20260831225633 | 88 | 268 | 4.0 | 11.0 | 0.00 | 0.00 | 0.00 | 74 | 1014.7 |
| 20260831225136 | 88 | 148 | 5.0 | 13.0 | 0.00 | 0.00 | 0.00 | 74 | 1014.7 |
| 20260831224631 | 89 | 279 | 5.0 | 13.0 | 0.00 | 0.00 | 0.00 | 73 | 1014.7 |
| 20260831224131 | 89 | 300 | 5.0 | 13.0 | 0.00 | 0.00 | 0.00 | 73 | 1014.7 |
| 20260831223632 | 89 | 251 | 5.0 | 11.0 | 0.00 | 0.00 | 0.00 | 73 | 1014.6 |
| 20260831223130 | 89 | 305 | 4.0 | 11.0 | 0.00 | 0.00 | 0.00 | 73 | 1014.5 |
| 20260831222625 | 89 | 334 | 4.0 | 10.0 | 0.00 | 0.00 | 0.00 | 75 | 1014.6 |
| 20260831222124 | 89 | 267 | 3.0 | 10.0 | 0.00 | 0.00 | 0.00 | 75 | 1014.5 |
| 20260831221856 | 89 | 285 | 3.0 | 6.0 | 0.00 | 0.00 | 0.00 | 75 | 1014.5 |
| 20260831221122 | 89 | 281 | 4.0 | 10.0 | 0.00 | 0.00 | 0.00 | 74 | 1014.6 |
| 20260831220622 | 89 | 298 | 4.0 | 10.0 | 0.00 | 0.00 | 0.00 | 76 | 1014.6 |
| 20260831220122 | 89 | 256 | 4.0 | 9.0 | 0.00 | 0.00 | 0.00 | 75 | 1014.7 |
| 20260831215623 | 89 | 229 | 3.0 | 11.0 | 0.00 | 0.00 | 0.00 | 74 | 1014.7 |
| 20260831215123 | 89 | 264 | 4.0 | 11.0 | 0.00 | 0.00 | 0.00 | 75 | 1014.8 |
| 20260831214624 | 88 | 310 | 4.0 | 9.0 | 0.00 | 0.00 | 0.00 | 76 | 1014.7 |
| 20260831214122 | 89 | 251 | 4.0 | 8.0 | 0.00 | 0.00 | 0.00 | 75 | 1014.6 |
| 20260831213623 | 89 | 301 | 4.0 | 9.0 | 0.00 | 0.00 | 0.00 | 76 | 1014.6 |
| 20260831213123 | 89 | 312 | 3.0 | 9.0 | 0.00 | 0.00 | 0.00 | 75 | 1014.7 |
| 20260831212621 | 88 | 296 | 4.0 | 13.0 | 0.00 | 0.00 | 0.00 | 74 | 1014.8 |
| 20260831212121 | 88 | 203 | 4.0 | 13.0 | 0.00 | 0.00 | 0.00 | 74 | 1014.8 |
| 20260831211621 | 88 | 296 | 4.0 | 11.0 | 0.00 | 0.00 | 0.00 | 75 | 1015.0 |
| 20260831211121 | 88 | 329 | 4.0 | 9.0 | 0.00 | 0.00 | 0.00 | 76 | 1014.9 |
| 20260831210621 | 88 | 274 | 3.0 | 9.0 | 0.00 | 0.00 | 0.00 | 75 | 1014.9 |
| 20260831210122 | 88 | 223 | 3.0 | 6.0 | 0.00 | 0.00 | 0.00 | 75 | 1014.8 |
| 20260831205616 | 88 | 208 | 3.0 | 10.0 | 0.00 | 0.00 | 0.00 | 75 | 1015.0 |
| 20260831205340 | 88 | 150 | 4.0 | 11.0 | 0.00 | 0.00 | 0.00 | 76 | 1014.9 |
| 20260831204604 | 88 | 215 | 6.0 | 14.0 | 0.00 | 0.00 | 0.00 | 75 | 1015.0 |
| 20260831204058 | 89 | 260 | 8.0 | 14.0 | 0.00 | 0.00 | 0.00 | 75 | 1015.2 |
| 20260831203814 | 90 | 337 | 6.0 | 14.0 | 0.00 | 0.00 | 0.00 | 73 | 1015.1 |
| 20260831203046 | 90 | 244 | 6.0 | 14.0 | 0.00 | 0.00 | 0.00 | 75 | 1015.1 |
| 20260831202540 | 90 | 288 | 5.0 | 14.0 | 0.00 | 0.00 | 0.00 | 73 | 1015.3 |
| 20260831202034 | 90 | 348 | 5.0 | 13.0 | 0.00 | 0.00 | 0.00 | 73 | 1015.4 |
| 20260831201756 | 91 | 5 | 5.0 | 11.0 | 0.00 | 0.00 | 0.00 | 73 | 1015.3 |
| 20260831201022 | 91 | 312 | 4.0 | 11.0 | 0.00 | 0.00 | 0.00 | 74 | 1015.2 |
| 20260831200521 | 91 | 306 | 4.0 | 16.0 | 0.00 | 0.00 | 0.00 | 72 | 1015.4 |
| 20260831200021 | 91 | 301 | 5.0 | 16.0 | 0.00 | 0.00 | 0.00 | 74 | 1015.3 |
| 20260831195520 | 91 | 303 | 5.0 | 13.0 | 0.00 | 0.01 | 0.00 | 71 | 1015.3 |
| 20260831195240 | 91 | 99 | 5.0 | 14.0 | 0.00 | 0.01 | 0.00 | 70 | 1015.2 |
| 20260831194521 | 91 | 310 | 8.0 | 15.0 | 0.00 | 0.01 | 0.00 | 72 | 1015.2 |
| 20260831194019 | 91 | 276 | 8.0 | 15.0 | 0.00 | 0.01 | 0.00 | 70 | 1015.1 |
| 20260831193747 | 90 | 345 | 6.0 | 15.0 | 0.00 | 0.01 | 0.00 | 71 | 1015.1 |
| 20260831193235 | 91 | 345 | 5.0 | 14.0 | 0.00 | 0.01 | 0.00 | 71 | 1015.3 |
| 20260831192515 | 90 | 284 | 4.0 | 10.0 | 0.00 | 0.01 | 0.00 | 73 | 1015.6 |
| 20260831192016 | 90 | 242 | 5.0 | 10.0 | 0.00 | 0.01 | 0.00 | 73 | 1015.4 |
| 20260831191515 | 89 | 300 | 5.0 | 11.0 | 0.00 | 0.01 | 0.00 | 74 | 1015.5 |
| 20260831191015 | 90 | 89 | 4.0 | 11.0 | 0.00 | 0.01 | 0.00 | 72 | 1015.7 |
| 20260831190511 | 90 | 258 | 4.0 | 10.0 | 0.00 | 0.01 | 0.00 | 71 | 1015.7 |
| 20260831190013 | 90 | 315 | 4.0 | 10.0 | 0.00 | 0.01 | 0.00 | 71 | 1015.7 |
| 20260831185511 | 91 | 294 | 3.0 | 9.0 | 0.00 | 0.01 | 0.00 | 70 | 1015.8 |
| 20260831185011 | 91 | 192 | 4.0 | 14.0 | 0.00 | 0.01 | 0.00 | 70 | 1015.6 |
| 20260831184514 | 90 | 182 | 5.0 | 15.0 | 0.00 | 0.01 | 0.00 | 71 | 1015.5 |
| 20260831184009 | 89 | 335 | 5.0 | 15.0 | 0.00 | 0.01 | 0.00 | 72 | 1015.7 |
| 20260831183504 | 89 | 284 | 4.0 | 10.0 | 0.00 | 0.01 | 0.00 | 77 | 1015.6 |
| 20260831182956 | 89 | 234 | 3.0 | 10.0 | 0.00 | 0.01 | 0.00 | 76 | 1015.8 |
| 20260831182452 | 88 | 135 | 4.0 | 11.0 | 0.00 | 0.01 | 0.00 | 78 | 1015.8 |
| 20260831181945 | 88 | 310 | 4.0 | 11.0 | 0.00 | 0.01 | 0.00 | 79 | 1016.0 |
| 20260831181438 | 88 | 317 | 5.0 | 11.0 | 0.00 | 0.01 | 0.00 | 79 | 1016.1 |
| 20260831180933 | 87 | 297 | 6.0 | 15.0 | 0.00 | 0.01 | 0.00 | 77 | 1016.0 |
| 20260831180427 | 87 | 307 | 6.0 | 15.0 | 0.00 | 0.01 | 0.00 | 76 | 1016.1 |
| 20260831175921 | 88 | 289 | 6.0 | 14.0 | 0.00 | 0.01 | 0.00 | 75 | 1016.0 |
| 20260831175415 | 88 | 306 | 6.0 | 14.0 | 0.00 | 0.01 | 0.00 | 75 | 1016.1 |
| 20260831174909 | 89 | 292 | 8.0 | 15.0 | 0.00 | 0.01 | 0.00 | 73 | 1016.2 |
| 20260831174403 | 89 | 313 | 9.0 | 15.0 | 0.00 | 0.01 | 0.00 | 74 | 1016.3 |
| 20260831173857 | 89 | 307 | 10.0 | 19.0 | 0.00 | 0.01 | 0.00 | 73 | 1016.2 |
| 20260831173351 | 89 | 296 | 10.0 | 19.0 | 0.00 | 0.01 | 0.00 | 73 | 1016.3 |
| 20260831172845 | 89 | 325 | 8.0 | 16.0 | 0.00 | 0.01 | 0.00 | 73 | 1016.3 |
| 20260831172339 | 90 | 293 | 5.0 | 13.0 | 0.00 | 0.01 | 0.00 | 74 | 1016.2 |
| 20260831171834 | 91 | 244 | 4.0 | 13.0 | 0.00 | 0.01 | 0.00 | 74 | 1016.3 |
| 20260831171327 | 91 | 245 | 3.0 | 9.0 | 0.00 | 0.01 | 0.00 | 72 | 1016.5 |
| 20260831170821 | 91 | 172 | 3.0 | 8.0 | 0.00 | 0.01 | 0.00 | 73 | 1016.5 |
| 20260831170315 | 91 | 119 | 3.0 | 10.0 | 0.00 | 0.01 | 0.00 | 74 | 1016.5 |
| 20260831165808 | 91 | 208 | 3.0 | 10.0 | 0.00 | 0.01 | 0.00 | 73 | 1016.4 |
| 20260831165305 | 91 | 316 | 3.0 | 9.0 | 0.00 | 0.01 | 0.00 | 74 | 1016.3 |
| 20260831164757 | 91 | 89 | 3.0 | 9.0 | 0.00 | 0.01 | 0.00 | 73 | 1016.5 |
| 20260831164251 | 90 | 141 | 3.0 | 10.0 | 0.00 | 0.01 | 0.00 | 75 | 1016.6 |
| 20260831163745 | 90 | 173 | 3.0 | 10.0 | 0.00 | 0.01 | 0.00 | 76 | 1016.6 |
| 20260831163243 | 91 | 183 | 4.0 | 10.0 | 0.00 | 0.01 | 0.00 | 76 | 1016.7 |
| 20260831163226 | 91 | 135 | 3.0 | 10.0 | 0.00 | 0.01 | 0.00 | 74 | 1016.7 |
| 20260831162242 | 91 | 275 | 1.0 | 6.0 | 0.00 | 0.01 | 0.00 | 76 | 1016.7 |
| 20260831161743 | 90 | 272 | 1.0 | 6.0 | 0.00 | 0.01 | 0.00 | 78 | 1016.8 |
| 20260831161242 | 89 | 274 | 1.0 | 6.0 | 0.00 | 0.01 | 0.00 | 81 | 1016.7 |
| 20260831160739 | 88 | 265 | 1.0 | 6.0 | 0.00 | 0.01 | 0.00 | 81 | 1016.9 |
| 20260831160238 | 88 | 275 | 1.0 | 6.0 | 0.00 | 0.01 | 0.00 | 82 | 1016.7 |
| 20260831160002 | 87 | 166 | 1.0 | 6.0 | 0.00 | 0.01 | 0.00 | 82 | 1016.6 |
| 20260831155239 | 88 | 284 | 1.0 | 5.0 | 0.00 | 0.01 | 0.00 | 83 | 1016.7 |
| 20260831154740 | 88 | 167 | 1.0 | 5.0 | 0.00 | 0.01 | 0.00 | 82 | 1016.8 |
| 20260831154240 | 88 | 267 | 3.0 | 6.0 | 0.00 | 0.01 | 0.00 | 81 | 1016.6 |
| 20260831153737 | 88 | 154 | 3.0 | 6.0 | 0.00 | 0.01 | 0.00 | 83 | 1016.7 |
| 20260831153458 | 88 | 298 | 1.0 | 6.0 | 0.00 | 0.01 | 0.00 | 82 | 1016.8 |
| 20260831152736 | 88 | 192 | 1.0 | 6.0 | 0.00 | 0.01 | 0.00 | 82 | 1016.8 |
| 20260831152239 | 87 | 168 | 1.0 | 6.0 | 0.00 | 0.01 | 0.00 | 82 | 1016.6 |
| 20260831151739 | 87 | 317 | 1.0 | 9.0 | 0.00 | 0.01 | 0.00 | 84 | 1016.6 |
| 20260831151452 | 87 | 130 | 1.0 | 9.0 | 0.00 | 0.01 | 0.00 | 82 | 1016.7 |
| 20260831150726 | 87 | 173 | 3.0 | 8.0 | 0.00 | 0.01 | 0.00 | 83 | 1016.6 |
| 20260831150220 | 87 | 211 | 3.0 | 6.0 | 0.00 | 0.01 | 0.00 | 86 | 1016.8 |
| 20260831145714 | 86 | 324 | 1.0 | 6.0 | 0.00 | 0.01 | 0.00 | 86 | 1016.9 |
| 20260831145209 | 86 | 297 | 1.0 | 5.0 | 0.00 | 0.01 | 0.00 | 88 | 1016.7 |
| 20260831144702 | 85 | 181 | 1.0 | 4.0 | 0.00 | 0.01 | 0.00 | 87 | 1016.7 |
| 20260831144156 | 85 | 189 | 1.0 | 6.0 | 0.00 | 0.01 | 0.00 | 87 | 1016.7 |
| 20260831143923 | 85 | 142 | 1.0 | 6.0 | 0.00 | 0.01 | 0.00 | 88 | 1016.7 |
| 20260831143146 | 85 | 179 | 1.0 | 5.0 | 0.00 | 0.01 | 0.00 | 88 | 1016.7 |
| 20260831142902 | 85 | 114 | 1.0 | 4.0 | 0.00 | 0.01 | 0.00 | 89 | 1016.5 |
| 20260831142742 | 85 | 165 | 1.0 | 5.0 | 0.00 | 0.01 | 0.00 | 89 | 1016.6 |
| 20260831141647 | 84 | 260 | 1.0 | 6.0 | 0.00 | 0.01 | 0.00 | 89 | 1016.4 |
| 20260831141146 | 84 | 129 | 1.0 | 6.0 | 0.00 | 0.01 | 0.00 | 90 | 1016.4 |
| 20260831140650 | 84 | 323 | 1.0 | 6.0 | 0.00 | 0.01 | 0.00 | 90 | 1016.5 |
| 20260831140147 | 84 | 235 | 3.0 | 6.0 | 0.00 | 0.01 | 0.00 | 91 | 1016.5 |
| 20260831135647 | 84 | 149 | 1.0 | 6.0 | 0.00 | 0.01 | 0.00 | 90 | 1016.3 |
| 20260831135148 | 85 | 272 | 1.0 | 5.0 | 0.00 | 0.01 | 0.00 | 89 | 1016.3 |
| 20260831134648 | 85 | 278 | 1.0 | 4.0 | 0.00 | 0.01 | 0.00 | 90 | 1016.2 |
| 20260831134146 | 84 | 201 | 1.0 | 4.0 | 0.00 | 0.01 | 0.00 | 91 | 1016.0 |
| 20260831133910 | 84 | 308 | 1.0 | 4.0 | 0.00 | 0.01 | 0.00 | 90 | 1015.9 |
| 20260831133146 | 83 | 183 | 0.0 | 3.0 | 0.00 | 0.01 | 0.00 | 92 | 1016.0 |
| 20260831132648 | 83 | 217 | 0.0 | 3.0 | 0.00 | 0.01 | 0.00 | 92 | 1015.8 |
| 20260831132148 | 82 | 105 | 0.0 | 3.0 | 0.00 | 0.01 | 0.00 | 94 | 1015.7 |
| 20260831131644 | 82 | 165 | 0.0 | 5.0 | 0.00 | 0.01 | 0.00 | 95 | 1015.8 |
| 20260831131143 | 81 | 191 | 0.0 | 5.0 | 0.00 | 0.01 | 0.00 | 96 | 1015.7 |
| 20260831130642 | 80 | 144 | 0.0 | 3.0 | 0.00 | 0.01 | 0.00 | 97 | 1015.7 |
| 20260831130143 | 80 | 153 | 0.0 | 3.0 | 0.00 | 0.01 | 0.00 | 99 | 1015.9 |
| 20260831125644 | 79 | 149 | 0.0 | 3.0 | 0.00 | 0.01 | 0.00 | 99 | 1015.9 |
| 20260831125144 | 79 | 156 | 0.0 | 1.0 | 0.00 | 0.01 | 0.00 | 100 | 1015.8 |
| 20260831124905 | 78 | 154 | 0.0 | 3.0 | 0.00 | 0.01 | 0.00 | 100 | 1016.0 |
| 20260831124402 | 78 | 161 | 0.0 | 3.0 | 0.00 | 0.01 | 0.00 | 100 | 1015.9 |
| 20260831123645 | 78 | 146 | 0.0 | 0.0 | 0.00 | 0.01 | 0.00 | 100 | 1015.8 |
| 20260831123143 | 77 | 146 | 0.0 | 0.0 | 0.00 | 0.01 | 0.00 | 100 | 1015.7 |
| 20260831122644 | 77 | 146 | 0.0 | 0.0 | 0.00 | 0.01 | 0.00 | 100 | 1015.7 |
| 20260831122142 | 77 | 144 | 0.0 | 1.0 | 0.00 | 0.01 | 0.00 | 100 | 1015.7 |
| 20260831121643 | 77 | 144 | 0.0 | 1.0 | 0.00 | 0.01 | 0.00 | 100 | 1015.6 |
| 20260831121143 | 77 | 144 | 0.0 | 1.0 | 0.00 | 0.01 | 0.00 | 100 | 1015.5 |
| 20260831120643 | 76 | 144 | 0.0 | 0.0 | 0.00 | 0.01 | 0.00 | 100 | 1015.5 |
| 20260831120409 | 76 | 144 | 0.0 | 0.0 | 0.00 | 0.01 | 0.00 | 100 | 1015.4 |
| 20260831115642 | 76 | 144 | 0.0 | 0.0 | 0.00 | 0.01 | 0.00 | 100 | 1015.4 |
| 20260831115143 | 76 | 144 | 0.0 | 0.0 | 0.00 | 0.01 | 0.00 | 100 | 1015.4 |
| 20260831114644 | 76 | 118 | 0.0 | 1.0 | 0.00 | 0.01 | 0.00 | 100 | 1015.3 |
| 20260831114402 | 76 | 161 | 0.0 | 1.0 | 0.00 | 0.01 | 0.00 | 100 | 1015.3 |
| 20260831113644 | 76 | 161 | 0.0 | 0.0 | 0.00 | 0.01 | 0.00 | 100 | 1015.3 |
| 20260831113146 | 76 | 162 | 0.0 | 0.0 | 0.00 | 0.01 | 0.00 | 100 | 1015.2 |
| 20260831112644 | 76 | 162 | 0.0 | 0.0 | 0.00 | 0.01 | 0.00 | 100 | 1015.1 |
| 20260831112143 | 76 | 162 | 0.0 | 0.0 | 0.00 | 0.01 | 0.00 | 100 | 1015.0 |
| 20260831111644 | 76 | 161 | 0.0 | 0.0 | 0.00 | 0.01 | 0.00 | 100 | 1015.2 |
| 20260831111142 | 76 | 161 | 0.0 | 0.0 | 0.00 | 0.01 | 0.00 | 100 | 1015.1 |
| 20260831110640 | 76 | 161 | 0.0 | 0.0 | 0.00 | 0.01 | 0.00 | 100 | 1014.9 |
| 20260831110138 | 76 | 162 | 0.0 | 0.0 | 0.00 | 0.01 | 0.00 | 100 | 1015.0 |
| 20260831105639 | 76 | 162 | 0.0 | 0.0 | 0.00 | 0.01 | 0.00 | 100 | 1015.0 |
| 20260831105138 | 76 | 161 | 0.0 | 0.0 | 0.00 | 0.01 | 0.00 | 100 | 1014.8 |
| 20260831104637 | 76 | 162 | 0.0 | 0.0 | 0.00 | 0.01 | 0.00 | 100 | 1014.8 |
| 20260831104137 | 76 | 162 | 0.0 | 0.0 | 0.00 | 0.01 | 0.00 | 100 | 1014.7 |
| 20260831103640 | 76 | 162 | 0.0 | 0.0 | 0.00 | 0.01 | 0.00 | 100 | 1014.7 |
| 20260831103134 | 76 | 161 | 0.0 | 0.0 | 0.00 | 0.01 | 0.00 | 100 | 1014.8 |
| 20260831102629 | 77 | 161 | 0.0 | 0.0 | 0.00 | 0.01 | 0.00 | 100 | 1014.8 |
| 20260831102342 | 77 | 162 | 0.0 | 0.0 | 0.00 | 0.01 | 0.00 | 100 | 1014.6 |
| 20260831101841 | 76 | 162 | 0.0 | 0.0 | 0.00 | 0.01 | 0.00 | 100 | 1014.6 |
| 20260831101110 | 76 | 161 | 0.0 | 0.0 | 0.00 | 0.01 | 0.00 | 100 | 1014.6 |
| 20260831100604 | 76 | 162 | 0.0 | 0.0 | 0.00 | 0.01 | 0.00 | 100 | 1014.6 |
| 20260831100058 | 76 | 162 | 0.0 | 0.0 | 0.00 | 0.01 | 0.00 | 100 | 1014.5 |
| 20260831095552 | 76 | 162 | 0.0 | 1.0 | 0.00 | 0.01 | 0.00 | 100 | 1014.5 |
| 20260831095046 | 76 | 161 | 0.0 | 1.0 | 0.00 | 0.01 | 0.00 | 100 | 1014.4 |
| 20260831094540 | 76 | 166 | 0.0 | 0.0 | 0.00 | 0.01 | 0.00 | 100 | 1014.7 |
| 20260831094034 | 76 | 166 | 0.0 | 0.0 | 0.00 | 0.01 | 0.00 | 100 | 1014.6 |
| 20260831093528 | 76 | 166 | 0.0 | 0.0 | 0.00 | 0.01 | 0.00 | 100 | 1014.5 |
| 20260831093249 | 76 | 166 | 0.0 | 0.0 | 0.00 | 0.01 | 0.00 | 100 | 1014.5 |
| 20260831092515 | 76 | 166 | 0.0 | 0.0 | 0.00 | 0.01 | 0.00 | 100 | 1014.5 |
| 20260831092010 | 76 | 166 | 0.0 | 0.0 | 0.00 | 0.01 | 0.00 | 100 | 1014.5 |
| 20260831091504 | 76 | 175 | 0.0 | 0.0 | 0.00 | 0.01 | 0.00 | 100 | 1014.7 |
| 20260831091000 | 76 | 175 | 0.0 | 0.0 | 0.00 | 0.01 | 0.00 | 100 | 1014.7 |
| 20260831090451 | 76 | 172 | 0.0 | 0.0 | 0.00 | 0.01 | 0.00 | 100 | 1014.5 |
| 20260831085946 | 76 | 172 | 0.0 | 3.0 | 0.00 | 0.01 | 0.00 | 100 | 1014.6 |
| 20260831085440 | 76 | 245 | 0.0 | 3.0 | 0.00 | 0.01 | 0.00 | 100 | 1014.5 |
| 20260831084933 | 76 | 165 | 0.0 | 1.0 | 0.00 | 0.01 | 0.00 | 100 | 1014.5 |
| 20260831084428 | 76 | 165 | 0.0 | 0.0 | 0.00 | 0.01 | 0.00 | 100 | 1014.4 |
| 20260831084405 | 76 | 165 | 0.0 | 0.0 | 0.00 | 0.01 | 0.00 | 100 | 1014.4 |
| 20260831083416 | 76 | 165 | 0.0 | 0.0 | 0.00 | 0.01 | 0.00 | 100 | 1014.3 |
| 20260831082910 | 76 | 165 | 0.0 | 0.0 | 0.00 | 0.01 | 0.00 | 100 | 1014.2 |
| 20260831082404 | 76 | 165 | 0.0 | 0.0 | 0.00 | 0.01 | 0.00 | 100 | 1014.2 |
| 20260831082350 | 76 | 165 | 0.0 | 0.0 | 0.00 | 0.01 | 0.00 | 100 | 1014.1 |
| 20260831081352 | 76 | 165 | 0.0 | 0.0 | 0.00 | 0.01 | 0.00 | 100 | 1014.3 |
| 20260831080847 | 76 | 165 | 0.0 | 0.0 | 0.00 | 0.01 | 0.00 | 100 | 1014.5 |
| 20260831080341 | 76 | 165 | 0.0 | 0.0 | 0.00 | 0.01 | 0.00 | 100 | 1014.5 |
| 20260831075834 | 76 | 165 | 0.0 | 0.0 | 0.00 | 0.01 | 0.00 | 100 | 1014.5 |
| 20260831075549 | 76 | 165 | 0.0 | 0.0 | 0.00 | 0.01 | 0.00 | 100 | 1014.6 |
| 20260831074822 | 76 | 165 | 0.0 | 0.0 | 0.00 | 0.01 | 0.00 | 100 | 1014.5 |
| 20260831074316 | 76 | 165 | 0.0 | 0.0 | 0.00 | 0.01 | 0.00 | 100 | 1014.4 |
| 20260831073810 | 77 | 165 | 0.0 | 0.0 | 0.00 | 0.01 | 0.00 | 100 | 1014.4 |
| 20260831073535 | 77 | 165 | 0.0 | 0.0 | 0.00 | 0.01 | 0.00 | 100 | 1014.5 |
| 20260831072758 | 77 | 165 | 0.0 | 0.0 | 0.00 | 0.01 | 0.00 | 100 | 1014.5 |
| 20260831072252 | 77 | 165 | 0.0 | 0.0 | 0.00 | 0.01 | 0.00 | 100 | 1014.5 |
| 20260831071746 | 77 | 165 | 0.0 | 0.0 | 0.00 | 0.01 | 0.00 | 100 | 1014.5 |
| 20260831071240 | 77 | 165 | 0.0 | 0.0 | 0.00 | 0.01 | 0.00 | 100 | 1014.5 |
| 20260831070734 | 77 | 165 | 0.0 | 0.0 | 0.00 | 0.01 | 0.00 | 100 | 1014.6 |
| 20260831070450 | 77 | 165 | 0.0 | 0.0 | 0.00 | 0.01 | 0.00 | 100 | 1014.9 |
| 20260831065721 | 77 | 165 | 0.0 | 0.0 | 0.00 | 0.01 | 0.00 | 100 | 1015.0 |
| 20260831065447 | 77 | 165 | 0.0 | 0.0 | 0.00 | 0.01 | 0.00 | 100 | 1014.9 |
| 20260831064710 | 77 | 165 | 0.0 | 0.0 | 0.00 | 0.01 | 0.00 | 100 | 1015.0 |
| 20260831064204 | 77 | 165 | 0.0 | 0.0 | 0.00 | 0.01 | 0.00 | 100 | 1014.9 |
| 20260831063657 | 77 | 165 | 0.0 | 0.0 | 0.00 | 0.01 | 0.00 | 100 | 1015.0 |
| 20260831063151 | 77 | 165 | 0.0 | 0.0 | 0.00 | 0.01 | 0.00 | 100 | 1015.0 |
| 20260831062646 | 77 | 165 | 0.0 | 0.0 | 0.00 | 0.01 | 0.00 | 100 | 1015.1 |
| 20260831062144 | 77 | 165 | 0.0 | 0.0 | 0.00 | 0.01 | 0.00 | 100 | 1015.2 |
| 20260831061644 | 77 | 165 | 0.0 | 0.0 | 0.00 | 0.01 | 0.00 | 100 | 1015.2 |
| 20260831061144 | 77 | 165 | 0.0 | 0.0 | 0.00 | 0.01 | 0.00 | 100 | 1015.3 |
| 20260831060643 | 77 | 165 | 0.0 | 0.0 | 0.00 | 0.01 | 0.00 | 100 | 1015.4 |
| 20260831060143 | 77 | 165 | 0.0 | 0.0 | 0.00 | 0.01 | 0.00 | 100 | 1015.2 |
| 20260831055644 | 77 | 163 | 0.0 | 0.0 | 0.00 | 0.01 | 0.00 | 100 | 1015.1 |
| 20260831055225 | 77 | 151 | 0.0 | 3.0 | 0.00 | 0.01 | 0.00 | 100 | 1015.1 |
| 20260831055142 | 77 | 154 | 0.0 | 0.0 | 0.00 | 0.01 | 0.00 | 100 | 1015.2 |
| 20260831054914 | 77 | 170 | 0.0 | 3.0 | 0.00 | 0.02 | 0.00 | 100 | 1015.1 |
| 20260831053641 | 77 | 177 | 0.0 | 0.0 | 0.00 | 0.02 | 0.00 | 100 | 1015.2 |
| 20260831053142 | 77 | 172 | 0.0 | 0.0 | 0.00 | 0.02 | 0.00 | 100 | 1015.2 |
| 20260831052639 | 77 | 172 | 0.0 | 0.0 | 0.00 | 0.02 | 0.00 | 100 | 1015.2 |
| 20260831052623 | 77 | 172 | 0.0 | 0.0 | 0.00 | 0.02 | 0.00 | 100 | 1015.2 |
| 20260831051638 | 77 | 172 | 0.0 | 0.0 | 0.00 | 0.02 | 0.00 | 100 | 1015.4 |
| 20260831051138 | 77 | 175 | 0.0 | 0.0 | 0.00 | 0.02 | 0.00 | 100 | 1015.5 |
| 20260831050902 | 77 | 175 | 0.0 | 0.0 | 0.00 | 0.02 | 0.00 | 100 | 1015.6 |
| 20260831050135 | 77 | 175 | 0.0 | 0.0 | 0.00 | 0.02 | 0.00 | 100 | 1015.6 |
| 20260831045635 | 77 | 175 | 0.0 | 0.0 | 0.00 | 0.02 | 0.02 | 100 | 1015.7 |
| 20260831045622 | 77 | 175 | 0.0 | 0.0 | 0.00 | 0.02 | 0.02 | 100 | 1015.6 |
| 20260831044623 | 77 | 175 | 0.0 | 0.0 | 0.00 | 0.02 | 0.02 | 100 | 1015.6 |
| 20260831044117 | 77 | 175 | 0.0 | 0.0 | 0.00 | 0.02 | 0.02 | 100 | 1015.5 |
| 20260831043611 | 77 | 175 | 0.0 | 0.0 | 0.00 | 0.02 | 0.02 | 100 | 1015.5 |
| 20260831043105 | 77 | 175 | 0.0 | 0.0 | 0.00 | 0.02 | 0.02 | 100 | 1015.5 |
| 20260831042827 | 77 | 175 | 0.0 | 0.0 | 0.00 | 0.02 | 0.02 | 100 | 1015.6 |
| 20260831042312 | 77 | 175 | 0.0 | 0.0 | 0.00 | 0.02 | 0.02 | 100 | 1015.6 |
| 20260831041547 | 77 | 175 | 0.0 | 0.0 | 0.00 | 0.02 | 0.02 | 100 | 1015.7 |
| 20260831041041 | 77 | 175 | 0.0 | 0.0 | 0.00 | 0.02 | 0.02 | 100 | 1015.7 |
| 20260831040536 | 77 | 175 | 0.0 | 0.0 | 0.00 | 0.02 | 0.02 | 100 | 1015.8 |
| 20260831040255 | 77 | 175 | 0.0 | 0.0 | 0.00 | 0.02 | 0.02 | 100 | 1015.7 |
| 20260831035748 | 77 | 175 | 0.0 | 0.0 | 0.00 | 0.02 | 0.02 | 100 | 1015.5 |
| 20260831035017 | 77 | 175 | 0.0 | 0.0 | 0.00 | 0.02 | 0.02 | 100 | 1015.6 |
| 20260831034511 | 77 | 175 | 0.0 | 0.0 | 0.00 | 0.03 | 0.02 | 100 | 1015.5 |
| 20260831034005 | 77 | 167 | 0.0 | 0.0 | 0.00 | 0.03 | 0.02 | 100 | 1015.7 |
| 20260831033459 | 77 | 167 | 0.0 | 0.0 | 0.00 | 0.03 | 0.02 | 100 | 1015.9 |
| 20260831032953 | 77 | 167 | 0.0 | 0.0 | 0.00 | 0.03 | 0.02 | 100 | 1015.7 |
| 20260831032447 | 77 | 167 | 0.0 | 0.0 | 0.00 | 0.03 | 0.02 | 100 | 1015.8 |
| 20260831031942 | 77 | 167 | 0.0 | 0.0 | 0.00 | 0.03 | 0.02 | 100 | 1015.8 |
| 20260831031435 | 77 | 167 | 0.0 | 0.0 | 0.00 | 0.03 | 0.02 | 100 | 1015.8 |
| 20260831030929 | 77 | 167 | 0.0 | 0.0 | 0.00 | 0.03 | 0.02 | 100 | 1015.7 |
| 20260831030423 | 77 | 167 | 0.0 | 0.0 | 0.00 | 0.03 | 0.02 | 100 | 1015.8 |
| 20260831025917 | 77 | 167 | 0.0 | 0.0 | 0.00 | 0.03 | 0.02 | 100 | 1015.7 |
| 20260831025411 | 77 | 167 | 0.0 | 0.0 | 0.00 | 0.04 | 0.02 | 100 | 1015.7 |
| 20260831025350 | 77 | 167 | 0.0 | 0.0 | 0.00 | 0.04 | 0.02 | 100 | 1015.6 |
| 20260831024357 | 77 | 167 | 0.0 | 0.0 | 0.00 | 0.04 | 0.02 | 100 | 1015.6 |
| 20260831023849 | 77 | 130 | 0.0 | 0.0 | 0.00 | 0.04 | 0.02 | 100 | 1015.7 |
| 20260831023822 | 77 | 107 | 0.0 | 0.0 | 0.00 | 0.04 | 0.02 | 100 | 1015.7 |
| 20260831022837 | 77 | 107 | 0.0 | 0.0 | 0.00 | 0.05 | 0.02 | 100 | 1015.7 |
| 20260831022331 | 77 | 107 | 0.0 | 3.0 | 0.00 | 0.05 | 0.02 | 100 | 1015.6 |
| 20260831022050 | 78 | 107 | 0.0 | 3.0 | 0.00 | 0.05 | 0.02 | 100 | 1015.7 |
| 20260831021319 | 78 | 107 | 0.0 | 1.0 | 0.00 | 0.06 | 0.02 | 100 | 1015.5 |
| 20260831021043 | 78 | 107 | 0.0 | 1.0 | 0.00 | 0.06 | 0.02 | 100 | 1015.4 |
| 20260831020307 | 78 | 97 | 0.0 | 1.0 | 0.00 | 0.06 | 0.02 | 100 | 1015.4 |
| 20260831020022 | 78 | 96 | 0.0 | 1.0 | 0.00 | 0.06 | 0.02 | 100 | 1015.2 |
| 20260831015255 | 79 | 97 | 0.0 | 1.0 | 0.00 | 0.07 | 0.02 | 100 | 1015.0 |
| 20260831015240 | 78 | 112 | 0.0 | 1.0 | 0.00 | 0.07 | 0.02 | 99 | 1015.0 |
| 20260831014243 | 79 | 146 | 0.0 | 0.0 | 0.00 | 0.07 | 0.02 | 98 | 1014.9 |
| 20260831014005 | 80 | 98 | 0.0 | 0.0 | 0.00 | 0.08 | 0.02 | 98 | 1014.9 |
| 20260831013433 | 81 | 216 | 0.0 | 3.0 | 0.00 | 0.09 | 0.02 | 91 | 1014.4 |
| 20260831013427 | 81 | 164 | 0.0 | 3.0 | 0.00 | 0.09 | 0.02 | 91 | 1014.6 |
| 20260831013356 | 80 | 93 | 0.0 | 0.0 | 0.00 | 0.08 | 0.02 | 96 | 1015.0 |
| 20260831013239 | 80 | 181 | 0.0 | 1.0 | 0.00 | 0.08 | 0.02 | 92 | 1014.9 |
| 20260831013124 | 80 | 169 | 0.0 | 1.0 | 0.00 | 0.09 | 0.02 | 92 | 1014.8 |
| 20260831013010 | 81 | 123 | 0.0 | 1.0 | 0.00 | 0.09 | 0.02 | 92 | 1014.8 |
| 20260831011256 | 81 | 164 | 0.0 | 3.0 | 0.00 | 0.09 | 0.02 | 91 | 1014.6 |
| 20260831010155 | 81 | 138 | 0.0 | 4.0 | 0.00 | 0.09 | 0.02 | 90 | 1014.5 |
| 20260831005648 | 82 | 135 | 1.0 | 4.0 | 0.00 | 0.09 | 0.02 | 89 | 1014.4 |
| 20260831005143 | 82 | 188 | 0.0 | 4.0 | 0.00 | 0.09 | 0.02 | 88 | 1014.4 |
| 20260831004904 | 83 | 166 | 0.0 | 3.0 | 0.00 | 0.09 | 0.02 | 87 | 1014.4 |
| 20260831004131 | 83 | 145 | 0.0 | 3.0 | 0.00 | 0.09 | 0.02 | 86 | 1014.4 |